JCSAT-13

Last updated on Jan. 26, 2021, 8:07 a.m. UTC

1 38331U 12023A   21025.81657185 -.00000345  00000-0  00000-0 0  9990
2 38331   0.0115 314.4074 0000974 347.9235 240.9576  1.00272206 31796
UTC
Height (km)
Latitude
Longitude
Inclination
Orbital Period
UTC large
Height (km)
Speed (km/s)
/
Latitude / Longitude
Inclination (degrees)
Orbital Period (minutes)
Azimuth
Elevation
Range (km)
Doppler Factor
iOS Compass Heading
iOS Angle

Next 30 passes for location: Hong Kong

Rise time Rise Azimuth (degrees) Set time Set Azimuth (degrees) Duration Max altitude (degrees)

No matching passes for this satellites